User: anonymous   Login
Location: Kailua
(21.4020°N, 157.7390°W)
Time: 01:57:43
(UTC-10:00)
Language:

Cosmos 2297 Rocket - Orbit

View from above orbital plane
View from above orbital plane
View from above satellite
View from above satellite

Ground track
Ground track

The orbit data is extracted from the following two-line orbital elements,

1 23405U 94077B   15084.50823352  .00000283  00000-0  17026-3 0  9999
2 23405 070.9820 128.2200 0001346 174.1461 185.9677 14.15147842 50257
Epoch (UTC): 25 March 2015 12:11:51
Eccentricity: 0.0001346
inclination: 70.9820°
perigee height: 841 km
apogee height: 843 km
right ascension of ascending node: 128.2200°
argument of perigee: 174.1461°
revolutions per day: 14.15147842
mean anomaly at epoch: 185.9677°
orbit number at epoch: 5025

The dashed part of the orbit path shows where the satellite is in the earth's shadow,  

DLR